Terminal Aerodrome Forecast
Issued by NWS Rapid City, SD

Home | Current Version | Previous Version | Text Only | Print | Product List | Glossary Off
Versions: 1 2 3 4 5 6 7 8 9 10 11 12 13 14 15 16 17 18 19 20 21 22 23 24

041
FTUS43 KUNR 261120
TAFRAP
TAF
KRAP 261120Z 2612/2712 14007KT P6SM SCT100
     FM262000 04012KT P6SM -TSRA BKN070CB
     FM270000 02016KT P6SM SCT200
     FM270600 35005KT P6SM BKN020=

USA.gov is the U.S. government's official web portal to all federal, state and local government web resources and services.